Location: El Águila
(10.4167°N, 66.7167°W)
Time: 06:39:38
(UTC+00:00)

Hubble Space Telescope - Pass Details

Date: 02 October 2022
Orbit: 530 x 534 km, 28.5° (Epoch: 26 November)

Event Time Altitude Azimuth Distance (km) Brightness Sun altitude
Rises 23:33:58 0° 321° (NW) 2,647 4.9 -19.8°
Reaches altitude 10° 23:37:32 10° 354° (N) 1,759 3.5 -20.7°
Enters shadow 23:38:36 12° 9° (N) 1,650 3.1 -21.0°
